Weather History for McCall, ID

Change the Weather History Date:

Sunday, May 4, 2014

  Actual Average Record
Temperature  
Mean Temperature 50 °F 43 °F  
Max Temperature 58 °F 55 °F 83 °F (1966)
Min Temperature 41 °F 30 °F 21 °F (2002)
Degree Days  
Heating Degree Days 15 22  
Month to date heating degree days 57 91  
Since 1 July heating degree days 7851 8726  
Cooling Degree Days 0 0  
Month to date cooling degree days 0 0  
Year to date cooling degree days 0 0  
Moisture  
Dew Point 32 °F    
Average Humidity 56    
Maximum Humidity 86    
Minimum Humidity 25    
Precipitation  
Precipitation T in 0.07 in 0.69 in (1993)
Month to date precipitation T 0.27  
Year to date precipitation 13.29 7.86  
Sea Level Pressure  
Sea Level Pressure 29.77 in    
Wind  
Wind Speed 8 mph (SW)    
Max Wind Speed 23 mph    
Max Gust Speed 36 mph    
Visibility 10 miles    
Events      
T = Trace of Precipitation, MM = Missing Value Source: NWS Daily Summary

Daily Weather History Graph

Daily Weather History Graph

Search for Another Location

Airport:

Trip Planner

Search our weather history database for the weather conditions in past years. The results will help you decide how hot, cold, wet, or windy it might be!

Date:

Astronomy

May. 04, 2014 Rise Set
Actual Time 6:29 AM MDT 8:53 PM MDT
Civil Twilight 5:56 AM MDT 9:26 PM MDT
Nautical Twilight 5:16 AM MDT 10:07 PM MDT
Astronomical Twilight 4:30 AM MDT 10:53 PM MDT
Moon 10:56 AM MDT (5/4) 1:02 AM MDT (5/4)
Length of Visible Light 15h 29m
Length of Day
14h 24m
Waxing Crescent, 28% of the Moon is Illuminated
May 4
Waxing Crescent
May 6
First Quarter
May 14
Full
May 21
Last Quarter
May 28
New

Hourly Weather History & Observations

Time (MDT) Temp. Windchill Dew Point Humidity Pressure Visibility Wind Dir Wind Speed Gust Speed Precip Events Conditions
12:51 AM 43.0 °F 37.7 °F 37.0 °F 80% 29.69 in 10.0 mi NNW 9.2 mph - N/A   Clear
1:51 AM 42.1 °F 38.4 °F 37.0 °F 82% 29.69 in 10.0 mi North 5.8 mph - N/A   Clear
2:51 AM 42.1 °F 39.2 °F 37.0 °F 82% 29.70 in 10.0 mi NW 4.6 mph - N/A   Clear
3:18 AM 42.1 °F 40.2 °F 37.9 °F 85% 29.77 in 10.0 mi Variable 3.5 mph - N/A   Mostly Cloudy
3:51 AM 42.1 °F - 37.9 °F 85% 29.72 in 10.0 mi Calm Calm - N/A   Overcast
4:51 AM 41.0 °F - 37.0 °F 86% 29.73 in 10.0 mi Calm Calm - N/A   Mostly Cloudy
5:51 AM 42.1 °F - 37.9 °F 85% 29.74 in 10.0 mi Calm Calm - 0.00 in   Overcast
6:30 AM 41.0 °F - 39.0 °F 93% 29.81 in 10.0 mi Calm Calm - N/A   Overcast
6:51 AM 41.0 °F 39.0 °F 37.9 °F 89% 29.76 in 10.0 mi NW 3.5 mph - N/A   Overcast
7:51 AM 41.0 °F - 37.9 °F 89% 29.78 in 10.0 mi Calm Calm - N/A   Mostly Cloudy
8:51 AM 44.1 °F - 37.9 °F 79% 29.80 in 10.0 mi Calm Calm - N/A   Mostly Cloudy
9:51 AM 46.9 °F - 39.0 °F 74% 29.81 in 10.0 mi SW 3.5 mph - N/A   Overcast
10:51 AM 53.1 °F - 30.0 °F 41% 29.82 in 10.0 mi South 17.3 mph 25.3 mph N/A   Mostly Cloudy
11:51 AM 54.0 °F - 26.1 °F 34% 29.82 in 10.0 mi SSW 13.8 mph 24.2 mph N/A   Scattered Clouds
12:51 PM 55.9 °F - 24.1 °F 29% 29.81 in 10.0 mi WSW 12.7 mph 24.2 mph N/A   Partly Cloudy
1:51 PM 55.9 °F - 24.1 °F 29% 29.82 in 10.0 mi SSW 15.0 mph 24.2 mph N/A   Partly Cloudy
2:51 PM 54.0 °F - 27.0 °F 35% 29.83 in 10.0 mi SW 16.1 mph 23.0 mph N/A   Mostly Cloudy
3:51 PM 54.0 °F - 26.1 °F 34% 29.81 in 10.0 mi SSW 10.4 mph 23.0 mph N/A   Overcast
4:51 PM 54.0 °F - 27.0 °F 35% 29.79 in 10.0 mi SSE 15.0 mph 25.3 mph N/A   Overcast
5:51 PM 57.0 °F - 23.0 °F 27% 29.77 in 10.0 mi SSW 16.1 mph 21.9 mph N/A   Mostly Cloudy
6:51 PM 55.9 °F - 26.1 °F 32% 29.76 in 10.0 mi South 19.6 mph - N/A   Mostly Cloudy
7:51 PM 53.1 °F - 27.0 °F 37% 29.77 in 10.0 mi South 12.7 mph - N/A   Scattered Clouds
8:51 PM 46.9 °F - 28.9 °F 50% 29.78 in 10.0 mi South 5.8 mph - N/A   Clear
9:51 PM 46.0 °F 44.8 °F 28.9 °F 51% 29.78 in 10.0 mi SSW 3.5 mph - N/A   Scattered Clouds
10:51 PM 44.1 °F 41.5 °F 30.9 °F 60% 29.78 in 10.0 mi NNW 4.6 mph - N/A   Mostly Cloudy
11:51 PM 42.1 °F 40.2 °F 33.1 °F 70% 29.81 in 10.0 mi West 3.5 mph - N/A   Mostly Cloudy